パンスターズ彗星

P/2021 C2 ( PanSTARRS )

English version
Home page
Updated on December 16, 2022

---------------------------------------------------------------------

・ プロフィール

発見日 2021年2月12日
発見光度 22.1等
発見者 Pan-STARRS 1 telescope (Haleakala)

・ 写真集

・ 軌道要素

Epoch 2021 July 5.0 TT = JDT 2459400.5
T 2021 Feb. 24.42890 TT                                 Rudenko
q   4.8901940            (2000.0)            P               Q
n   0.03345394     Peri.   78.80448     -0.75705223     -0.55642651
a   9.5390379      Node    66.49367     +0.35064802     -0.78826516
e   0.4873494      Incl.   21.92686     +0.55128749     -0.26273100
P  29.5
From 54 observations 2021 Jan. 17-June 8, mean residual 0".5.

・ 光度変化

        m1 = 4.0 + 5 logΔ + 20 log r(t - 40)

---------------------------------------------------------------------

軌道要素はM.P.E.C. 2021-U31に掲載されたものです。
光度グラフはComet for Windowsで作成したものです。

---------------------------------------------------------------------

Copyright(C) Seiichi Yoshida (comet@aerith.net). All rights reserved.